User: anonymous   Login
Location: Blanot
(47.1713°N, 4.2340°E)
Time: 16:36:07
(UTC+00:00)
Language:

Cosmos 2221 Rocket - Orbit

View from above orbital plane
View from above orbital plane
View from above satellite
View from above satellite

Ground track
Ground track

The orbit data is extracted from the following two-line orbital elements,

1 22237U 92080B   20271.06101561  .00000068  00000-0  62587-5 0  9994
2 22237  82.5092  83.3446 0018296 246.6135 113.3153 14.78417699500418
Epoch (UTC): 27 September 2020 01:27:51
Eccentricity: 0.0018296
inclination: 82.5092°
perigee height: 621 km
apogee height: 647 km
right ascension of ascending node: 83.3446°
argument of perigee: 246.6135°
revolutions per day: 14.78417699
mean anomaly at epoch: 113.3153°
orbit number at epoch: 50041

The dashed part of the orbit path shows where the satellite is in the earth's shadow,  

DLR